• In Austria
  • List of Countries
  • For 7 days
  • Water Temperature
  • Satellite Maps
  • Weather Map
  • News
  • Weather Widgets
  • user-avatar
    Login

    Hourly Weather Dahab

    Today, 17 December, Sunday

    Time Temperature Precipitation Wind Pressure Humidity
    00:00 +18°C° 0 mm 1 mps 717 mmHg 48%
    01:00 +16°C° 0 mm 1 mps 717 mmHg 48%
    02:00 +16°C° 0 mm 1 mps 717 mmHg 49%
    03:00 +16°C° 0 mm 1 mps 717 mmHg 49%
    04:00 +16°C° 0 mm 1 mps 717 mmHg 49%
    05:00 +15°C° 0 mm 1 mps 717 mmHg 48%
    06:00 +18°C° 0 mm 1 mps 717 mmHg 44%
    07:00 +19°C° 0 mm 1 mps 717 mmHg 40%
    08:00 +21°C° 0 mm 1 mps 718 mmHg 35%
    09:00 +21°C° 0 mm 1 mps 718 mmHg 33%
    10:00 +22°C° 0 mm 1 mps 718 mmHg 31%
    11:00 +23°C° 0 mm 1 mps 718 mmHg 29%
    12:00 +24°C° 0 mm 1 mps 717 mmHg 29%
    13:00 +24°C° 0 mm 1 mps 717 mmHg 28%
    14:00 +24°C° 0 mm 1 mps 716 mmHg 29%
    15:00 +23°C° 0 mm 1 mps 716 mmHg 33%
    16:00 +22°C° 0 mm 1 mps 716 mmHg 37%
    17:00 +20°C° 0 mm 1 mps 716 mmHg 40%
    18:00 +20°C° 0 mm 1 mps 717 mmHg 41%
    19:00 +18°C° 0 mm 0 mps 717 mmHg 43%
    20:00 +17°C° 0 mm 0 mps 717 mmHg 44%
    21:00 +17°C° 0 mm 0 mps 717 mmHg 44%
    22:00 +17°C° 0 mm 0 mps 717 mmHg 45%
    23:00 +17°C° 0 mm 0 mps 717 mmHg 45%

    Tomorrow, 18 December, Monday

    Time Temperature Precipitation Wind Pressure Humidity
    00:00 +16°C° 0 mm 0 mps 717 mmHg 45%
    01:00 +16°C° 0 mm 0 mps 717 mmHg 44%
    02:00 +16°C° 0 mm 0 mps 717 mmHg 44%
    03:00 +18°C° 0 mm 1 mps 717 mmHg 42%
    04:00 +18°C° 0 mm 1 mps 717 mmHg 40%
    05:00 +18°C° 0 mm 2 mps 717 mmHg 39%
    06:00 +19°C° 0 mm 2 mps 717 mmHg 36%
    07:00 +20°C° 0 mm 2 mps 718 mmHg 33%
    08:00 +21°C° 0 mm 2 mps 718 mmHg 30%
    09:00 +23°C° 0 mm 2 mps 718 mmHg 28%
    10:00 +24°C° 0 mm 2 mps 718 mmHg 26%
    11:00 +26°C° 0 mm 2 mps 718 mmHg 25%
    12:00 +26°C° 0 mm 2 mps 718 mmHg 26%
    13:00 +26°C° 0 mm 2 mps 717 mmHg 27%
    14:00 +26°C° 0 mm 1 mps 716 mmHg 28%
    15:00 +25°C° 0 mm 1 mps 716 mmHg 31%
    16:00 +24°C° 0 mm 1 mps 716 mmHg 34%
    17:00 +22°C° 0 mm 1 mps 716 mmHg 37%
    18:00 +22°C° 0 mm 1 mps 716 mmHg 37%
    19:00 +22°C° 0 mm 1 mps 716 mmHg 36%
    20:00 +22°C° 0 mm 1 mps 717 mmHg 36%
    21:00 +21°C° 0 mm 1 mps 717 mmHg 36%
    22:00 +21°C° 0 mm 1 mps 717 mmHg 36%
    23:00 +21°C° 0 mm 1 mps 717 mmHg 36%

    Day after tomorrow, 19 December, Tuesday

    Time Temperature Precipitation Wind Pressure Humidity
    00:00 +21°C° 0 mm 1 mps 717 mmHg 35%
    01:00 +21°C° 0 mm 1 mps 716 mmHg 35%
    02:00 +20°C° 0 mm 1 mps 716 mmHg 35%
    03:00 +20°C° 0 mm 1 mps 716 mmHg 34%
    04:00 +20°C° 0 mm 1 mps 716 mmHg 34%
    05:00 +19°C° 0 mm 1 mps 716 mmHg 34%
    06:00 +20°C° 0 mm 1 mps 716 mmHg 31%
    07:00 +21°C° 0 mm 1 mps 717 mmHg 29%
    08:00 +22°C° 0 mm 1 mps 717 mmHg 26%
    09:00 +23°C° 0 mm 1 mps 717 mmHg 25%
    10:00 +25°C° 0 mm 1 mps 717 mmHg 24%
    11:00 +26°C° 0 mm 2 mps 718 mmHg 23%
    12:00 +26°C° 0 mm 2 mps 717 mmHg 23%
    13:00 +26°C° 0 mm 2 mps 717 mmHg 23%
    14:00 +27°C° 0 mm 2 mps 716 mmHg 23%
    15:00 +25°C° 0 mm 2 mps 716 mmHg 25%
    16:00 +24°C° 0 mm 1 mps 716 mmHg 28%
    17:00 +23°C° 0 mm 1 mps 715 mmHg 30%
    18:00 +22°C° 0 mm 1 mps 716 mmHg 30%
    19:00 +22°C° 0 mm 1 mps 716 mmHg 31%
    20:00 +21°C° 0 mm 1 mps 716 mmHg 31%
    21:00 +21°C° 0 mm 1 mps 716 mmHg 31%
    22:00 +21°C° 0 mm 1 mps 716 mmHg 30%
    23:00 +21°C° 0 mm 1 mps 716 mmHg 30%

    20 December, Wednesday

    Time Temperature Precipitation Wind Pressure Humidity
    00:00 +20°C° 0 mm 1 mps 716 mmHg 30%
    01:00 +20°C° 0 mm 1 mps 716 mmHg 30%
    02:00 +20°C° 0 mm 1 mps 715 mmHg 30%
    03:00 +20°C° 0 mm 1 mps 715 mmHg 30%
    04:00 +19°C° 0 mm 1 mps 715 mmHg 30%
    05:00 +19°C° 0 mm 1 mps 715 mmHg 30%
    06:00 +20°C° 0 mm 1 mps 715 mmHg 29%
    07:00 +21°C° 0 mm 1 mps 716 mmHg 28%
    08:00 +22°C° 0 mm 1 mps 716 mmHg 27%
    09:00 +24°C° 0 mm 1 mps 717 mmHg 25%
    10:00 +25°C° 0 mm 2 mps 717 mmHg 24%
    11:00 +26°C° 0 mm 2 mps 717 mmHg 23%
    12:00 +27°C° 0 mm 2 mps 717 mmHg 22%
    13:00 +27°C° 0 mm 3 mps 716 mmHg 22%
    14:00 +27°C° 0 mm 3 mps 716 mmHg 21%
    15:00 +26°C° 0 mm 2 mps 716 mmHg 23%
    16:00 +24°C° 0 mm 2 mps 716 mmHg 26%
    17:00 +23°C° 0 mm 1 mps 716 mmHg 28%
    18:00 +23°C° 0 mm 1 mps 716 mmHg 28%
    19:00 +22°C° 0 mm 1 mps 717 mmHg 28%
    20:00 +22°C° 0 mm 1 mps 717 mmHg 28%
    21:00 +22°C° 0 mm 1 mps 717 mmHg 29%
    22:00 +21°C° 0 mm 1 mps 717 mmHg 30%
    23:00 +21°C° 0 mm 1 mps 717 mmHg 30%

    21 December, Thursday

    Time Temperature Precipitation Wind Pressure Humidity
    00:00 +20°C° 0 mm 1 mps 717 mmHg 31%
    01:00 +20°C° 0 mm 1 mps 716 mmHg 32%
    02:00 +20°C° 0 mm 1 mps 716 mmHg 33%
    03:00 +20°C° 0 mm 1 mps 716 mmHg 34%
    04:00 +19°C° 0 mm 1 mps 716 mmHg 34%
    05:00 +19°C° 0 mm 1 mps 716 mmHg 34%
    06:00 +20°C° 0 mm 1 mps 717 mmHg 33%
    07:00 +21°C° 0 mm 1 mps 717 mmHg 32%
    08:00 +22°C° 0 mm 1 mps 718 mmHg 30%
    09:00 +23°C° 0 mm 1 mps 718 mmHg 30%
    10:00 +25°C° 0 mm 1 mps 718 mmHg 29%
    11:00 +26°C° 0 mm 1 mps 718 mmHg 29%
    12:00 +26°C° 0 mm 1 mps 717 mmHg 28%
    13:00 +26°C° 0 mm 1 mps 717 mmHg 27%
    14:00 +27°C° 0 mm 2 mps 716 mmHg 27%
    15:00 +25°C° 0 mm 1 mps 716 mmHg 30%
    16:00 +24°C° 0 mm 1 mps 716 mmHg 33%
    17:00 +23°C° 0 mm 1 mps 716 mmHg 35%
    18:00 +22°C° 0 mm 1 mps 716 mmHg 36%
    19:00 +20°C° 0 mm 0 mps 716 mmHg 37%
    20:00 +19°C° 0 mm 0 mps 717 mmHg 38%
    21:00 +19°C° 0 mm 0 mps 716 mmHg 38%
    22:00 +19°C° 0 mm 0 mps 716 mmHg 39%
    23:00 +19°C° 0 mm 0 mps 716 mmHg 39%

    22 December, Friday

    Time Temperature Precipitation Wind Pressure Humidity
    00:00 +18°C° 0 mm 0 mps 716 mmHg 39%
    01:00 +18°C° 0 mm 0 mps 716 mmHg 40%
    02:00 +18°C° 0 mm 0 mps 716 mmHg 41%
    03:00 +17°C° 0 mm 0 mps 715 mmHg 40%
    04:00 +19°C° 0 mm 1 mps 715 mmHg 40%
    05:00 +19°C° 0 mm 1 mps 715 mmHg 40%
    06:00 +20°C° 0 mm 1 mps 716 mmHg 37%
    07:00 +21°C° 0 mm 1 mps 716 mmHg 35%
    08:00 +22°C° 0 mm 1 mps 716 mmHg 32%
    09:00 +23°C° 0 mm 1 mps 716 mmHg 31%
    10:00 +24°C° 0 mm 1 mps 716 mmHg 29%
    11:00 +26°C° 0 mm 1 mps 716 mmHg 27%
    12:00 +26°C° 0 mm 1 mps 716 mmHg 27%
    13:00 +26°C° 0 mm 1 mps 715 mmHg 26%
    14:00 +26°C° 0 mm 2 mps 715 mmHg 26%
    15:00 +25°C° 0 mm 1 mps 714 mmHg 29%
    16:00 +24°C° 0 mm 1 mps 714 mmHg 32%
    17:00 +22°C° 0 mm 1 mps 714 mmHg 35%
    18:00 +22°C° 0 mm 1 mps 714 mmHg 37%
    19:00 +19°C° 0 mm 0 mps 714 mmHg 39%
    20:00 +18°C° 0 mm 0 mps 714 mmHg 41%
    21:00 +18°C° 0 mm 0 mps 714 mmHg 41%
    22:00 +18°C° 0 mm 0 mps 714 mmHg 42%
    23:00 +18°C° 0 mm 0 mps 714 mmHg 43%
    Show more